Location: Latina
(41.4670°N, 12.8670°E)
Time: 21:58:14
(UTC+02:00)

ISS - Pass Details

Date: 20 May 2021
Orbit: 417 x 422 km, 51.6° (Epoch: 22 June)

Event Time Altitude Azimuth Distance (km) Brightness Sun altitude
Rises 01:21:37 0° 309° (NW) 2,370 0.5 -28.4°
Reaches altitude 10° 01:23:53 10° 321° (NW) 1,505 -0.4 -28.4°
Enters shadow 01:24:29 14° 326° (NW) 1,295 -0.7 -28.4°
